User: anonymous   Login
Location: Newark
(45.8944°N, 12.5886°E)
Time: 21:18:58
(UTC+00:00)
Language:

CAS-4B - Orbit

View from above orbital plane
View from above orbital plane
View from above satellite
View from above satellite

Ground track
Ground track

The orbit data is extracted from the following two-line orbital elements,

1 42759U 17034B   20088.45277987  .00000186  00000-0  24799-4 0  9999
2 42759  43.0184 112.0814 0012070 246.1125 254.8168 15.09772906153725
Epoch (UTC): 28 March 2020 10:52:00
Eccentricity: 0.0012070
inclination: 43.0184°
perigee height: 528 km
apogee height: 545 km
right ascension of ascending node: 112.0814°
argument of perigee: 246.1125°
revolutions per day: 15.09772906
mean anomaly at epoch: 254.8168°
orbit number at epoch: 15372

The dashed part of the orbit path shows where the satellite is in the earth's shadow,  

DLR